[[{"header":{"parameterUnit":"m.s-1","parameterCategory":1,"la1":30.2991,"la2":30.254,"lo1":-89.0895,"lo2":-89.0444,"dy":0.0017,"dx":0.0017,"nx":28,"ny":28,"refTime":"2024-02-26T03:00:00:Z","depth":0,"parameterNumber":2,"parameterNumberName":"U-component_of_WINDS"},"data":[0,0,0,0,0,0,0,0,0,0,0,0,0,0,0,0,0,0,0,0,0,0,0,0,0,0,0,0,0,0,0,0,0,0,0,0,0,0,0,0,0,0,0,0,0,0,0,0,0,0,0,0,0,0,0,0,0,0,0.4047,0.4047,0,0.4035,0.4035,0.4035,0.4002,0.4001,0.4,0.3999,0.3989,0.3989,0.399,0,0,0,0,0,0,0,0,0,0,0,0,0,0.4043,0.4043,0.4047,0.4047,0.4047,0.4035,0.4035,0.4035,0.4002,0.4001,0.4,0.3999,0.3989,0.3989,0.399,0,0,0,0,0,0,0,0,0,0,0,0,0,0.4039,0.4043,0.4047,0.4029,0.4027,0.4035,0.4035,0.4035,0.4002,0.4001,0.4,0.3999,0.3989,0.3989,0.399,0.4015,0,0,0.3992,0.3992,0,0,0,0,0,0,0,0,0.4039,0.4039,0.4032,0.403,0.4028,0.4019,0.4029,0.4028,0.4002,0.4012,0.3999,0.3998,0.4,0.3999,0.4,0.4015,0.4014,0.3992,0.3992,0.3992,0.3992,0,0,0,0,0,0,0,0.404,0.404,0.4042,0.4032,0.403,0.4022,0.402,0.4029,0.4012,0.4011,0.4008,0.4007,0.3999,0.3999,0.3999,0.4014,0.3992,0.3992,0.3993,0.3993,0.4048,0.4049,0,0,0,0,0,0,0.4042,0.404,0.4043,0.4042,0.4031,0.4023,0.4021,0.4023,0.4012,0.4009,0.4008,0.4006,0.3999,0.3999,0.3999,0.4027,0.3992,0.3993,0.3993,0.4047,0.4049,0.405,0,0,0,0,0,0,0.4042,0.4043,0.4043,0.404,0.404,0.4024,0.4027,0.4023,0.4024,0.401,0.4007,0.4012,0.3998,0.3998,0.4011,0.4026,0.3993,0.3994,0.4046,0.4048,0.4049,0.4085,0,0,0,0,0,0,0.4042,0.4043,0.4052,0.4041,0.404,0.4056,0.4027,0.4024,0.4024,0.4021,0.4012,0.401,0.3997,0.401,0.4012,0.4027,0.3994,0.4045,0.4047,0.4049,0.4082,0.4088,0.4092,0,0,0,0,0,0.4042,0.4064,0.4053,0.4054,0.4051,0.4057,0.4056,0.4041,0.4026,0.4035,0.4026,0.401,0.4024,0.4012,0.4013,0.4029,0.4043,0.4046,0.4049,0.408,0.4087,0.4092,0,0,0,0,0,0,0.4078,0.4062,0.405,0.4068,0.4064,0.4051,0.4063,0.4048,0.4049,0.4046,0.4026,0.4025,0.4041,0.4036,0.4022,0.4052,0.4031,0.4034,0.4055,0.4061,0.4066,0.4067,0.3995,0,0,0,0,0,0.4088,0.4094,0.4079,0.4096,0.4095,0.4079,0.4081,0.4069,0.4064,0.4062,0.4054,0.4051,0.4054,0.4057,0.406,0.4081,0.4079,0.4092,0.4097,0.4101,0.4104,0.4115,0.4121,0.4058,0.4058,0.4058,0,0,0.4109,0.4101,0.4105,0.4103,0.4099,0.4105,0.4078,0.4086,0.409,0.4064,0.4076,0.4069,0.4064,0.4081,0.4089,0.4078,0.4121,0.4105,0.4108,0.4109,0.4118,0.4124,0.4129,0.406,0.406,0.4059,0,0,0.415,0.4144,0.4158,0.4154,0.4147,0.4136,0.4139,0.4128,0.4123,0.4134,0.4114,0.4119,0.4126,0.4123,0.4122,0.4161,0.4146,0.4162,0.4188,0.4199,0.4204,0.4208,0.4222,0.4227,0.4165,0.4165,0.4165,0,0.4178,0.4186,0.4167,0.4176,0.4175,0.415,0.4164,0.4161,0.4156,0.4156,0.4144,0.4151,0.4146,0.4162,0.4171,0.4171,0.4174,0.4163,0.4204,0.4208,0.4212,0.4225,0.4231,0.4167,0.4167,0.4166,0.4166,0,0.4219,0.4225,0.4237,0.4231,0.4232,0.4244,0.4227,0.423,0.4217,0.4208,0.422,0.4212,0.4212,0.4215,0.4203,0.4229,0.4223,0.4208,0.4186,0.422,0.4232,0.4237,0.417,0.4169,0.4168,0.4168,0,0,0.4284,0.4267,0.4272,0.4269,0.4259,0.4263,0.4273,0.4272,0.4276,0.4272,0.428,0.4286,0.4271,0.4271,0.4258,0.4267,0.4298,0.4251,0.425,0.426,0.4326,0.4338,0.4344,0.4288,0.4289,0.4289,0.4327,0,0.4324,0.4339,0.4322,0.4342,0.4347,0.4323,0.4331,0.4326,0.4317,0.432,0.431,0.4315,0.4295,0.4295,0.4302,0.4293,0.4311,0.429,0.4296,0.4296,0.4298,0.435,0.4363,0.4399,0.4331,0.4332,0.4333,0,0.4372,0.437,0.439,0.4377,0.4379,0.4387,0.4385,0.4388,0.4381,0.4374,0.4373,0.4357,0.4366,0.4344,0.4357,0.4342,0.4343,0.4339,0.434,0.4341,0.4317,0.4353,0.441,0.4416,0.434,0.4339,0.4339,0,0.4418,0.442,0.4432,0.443,0.4416,0.4422,0.4417,0.4409,0.4409,0.4407,0.4408,0.4407,0.4407,0.4407,0.4391,0.4377,0.4405,0.4383,0.44,0.44,0.4408,0.4408,0.4466,0.4408,0.4407,0.4407,0.4407,0,0.4464,0.4477,0.4452,0.446,0.4474,0.4454,0.4468,0.446,0.4453,0.4459,0.4437,0.4443,0.4422,0.4426,0.4414,0.4425,0.4425,0.442,0.4417,0.4422,0.4423,0.4424,0.4421,0.4409,0.4408,0.4408,0.4408,0,0.4518,0.4502,0.4513,0.4499,0.4495,0.4506,0.4494,0.45,0.4489,0.4496,0.4497,0.448,0.4483,0.4467,0.4467,0.4459,0.4477,0.4469,0.4479,0.4477,0.4496,0.4494,0.4557,0.4564,0.4501,0.4501,0.4502,0,0.4549,0.4558,0.4544,0.4546,0.4541,0.4545,0.4545,0.4525,0.4526,0.4519,0.4526,0.4527,0.4527,0.4532,0.452,0.452,0.4513,0.4535,0.4513,0.4518,0.4513,0.4513,0.4514,0.454,0.454,0.4541,0.4542,0,0.4605,0.4597,0.4597,0.4595,0.4596,0.4593,0.4589,0.4592,0.457,0.4573,0.4575,0.4575,0.4574,0.4576,0.4573,0.4567,0.4551,0.4548,0.4552,0.4559,0.4564,0.4562,0.4493,0.4547,0.4547,0.4546,0.4546,0.4546,0.4649,0.4656,0.4647,0.4648,0.4643,0.4639,0.4645,0.4634,0.4635,0.4633,0.4621,0.4626,0.4618,0.4612,0.4608,0.4611,0.4601,0.4607,0.4608,0.461,0.4613,0.4563,0.4611,0.461,0.461,0.461,0.461,0,0.4705,0.4697,0.4699,0.4693,0.4694,0.4678,0.4672,0.4674,0.4678,0.4672,0.4672,0.4674,0.4675,0.4662,0.4661,0.4666,0.4659,0.4667,0.4667,0.4666,0.4623,0.462,0.4673,0.4673,0.4673,0.4673,0.4673,0.4673,0.4734,0.4745,0.4735,0.4743,0.4735,0.4739,0.4737,0.4734,0.4729,0.4732,0.4732,0.4724,0.4715,0.4713,0.4713,0.4709,0.471,0.472,0.4714,0.4675,0.4669,0.4663,0.466,0.4721,0.4721,0.4757,0.4757,0.4757]},{"header":{"parameterUnit":"m.s-1","parameterCategory":1,"la1":30.2991,"la2":30.254,"lo1":-89.0895,"lo2":-89.0444,"dy":0.0017,"dx":0.0017,"nx":28,"ny":28,"refTime":"2024-02-26T03:00:00:Z","depth":0,"parameterNumber":3,"parameterNumberName":"V-component_of_WINDS"},"data":[0,0,0,0,0,0,0,0,0,0,0,0,0,0,0,0,0,0,0,0,0,0,0,0,0,0,0,0,0,0,0,0,0,0,0,0,0,0,0,0,0,0,0,0,0,0,0,0,0,0,0,0,0,0,0,0,0,0,4.6381,4.6382,0,4.6457,4.6458,4.6459,4.6461,4.646,4.646,4.6459,4.6533,4.6536,4.6539,0,0,0,0,0,0,0,0,0,0,0,0,0,4.6235,4.6238,4.6381,4.6382,4.6383,4.6457,4.6458,4.6459,4.6461,4.646,4.6459,4.6458,4.6533,4.6536,4.6539,0,0,0,0,0,0,0,0,0,0,0,0,0,4.6303,4.6238,4.6381,4.6393,4.6395,4.6457,4.6458,4.6459,4.6462,4.646,4.6459,4.6458,4.6531,4.6536,4.654,4.6593,0,0,4.6553,4.6555,0,0,0,0,0,0,0,0,4.6299,4.6309,4.639,4.6392,4.6395,4.6448,4.6434,4.6504,4.6462,4.6436,4.6459,4.6457,4.6506,4.6512,4.6529,4.6597,4.66,4.6553,4.6556,4.6558,4.6559,0,0,0,0,0,0,0,4.6295,4.6305,4.6411,4.6391,4.6394,4.6394,4.6402,4.6447,4.6478,4.6438,4.6439,4.6448,4.6507,4.6525,4.6531,4.6601,4.6553,4.6557,4.6559,4.6561,4.6716,4.6717,0,0,0,0,0,0,4.6288,4.6301,4.6408,4.6413,4.6343,4.6398,4.6407,4.6432,4.6477,4.6483,4.6449,4.6448,4.6519,4.6526,4.6534,4.66,4.6557,4.6561,4.6564,4.6714,4.6716,4.6718,0,0,0,0,0,0,4.6285,4.6297,4.6405,4.6357,4.6371,4.6402,4.643,4.6435,4.6453,4.6485,4.649,4.6463,4.6518,4.6528,4.6579,4.6602,4.6563,4.6567,4.6712,4.6715,4.6717,4.6732,0,0,0,0,0,0,4.6281,4.6296,4.6318,4.6358,4.6374,4.645,4.6432,4.6437,4.6461,4.646,4.6499,4.6504,4.6518,4.6572,4.6583,4.6608,4.6571,4.671,4.6713,4.6716,4.6729,4.6734,4.6739,0,0,0,0,0,4.6275,4.6318,4.6319,4.6332,4.6401,4.6451,4.646,4.6475,4.6463,4.6484,4.6505,4.6503,4.6598,4.6577,4.6589,4.6616,4.6709,4.6712,4.6716,4.6727,4.6733,4.6738,0,0,0,0,0,0,4.6279,4.6324,4.6325,4.6382,4.6413,4.6452,4.6479,4.6481,4.6516,4.6513,4.6529,4.6538,4.6589,4.6607,4.6584,4.667,4.6652,4.6658,4.6656,4.6662,4.6667,4.6662,4.6574,0,0,0,0,0,4.6287,4.6325,4.6361,4.6408,4.6424,4.6449,4.6471,4.648,4.6512,4.6525,4.6549,4.658,4.6616,4.664,4.6675,4.6731,4.674,4.6755,4.676,4.6763,4.6769,4.68,4.6807,4.6729,4.6729,4.6729,0,0,4.6303,4.6332,4.6354,4.641,4.6435,4.6473,4.646,4.65,4.6529,4.6531,4.6581,4.66,4.6634,4.6688,4.6713,4.6705,4.6792,4.6768,4.6771,4.6774,4.6804,4.6811,4.6818,4.6731,4.6731,4.6731,0,0,4.6352,4.6377,4.642,4.6445,4.6483,4.65,4.651,4.6548,4.6561,4.6611,4.6614,4.6647,4.6709,4.6734,4.6755,4.6813,4.6813,4.6824,4.6848,4.6878,4.6884,4.689,4.6911,4.6918,4.6828,4.6829,4.6829,0,4.6366,4.6425,4.6441,4.6482,4.6506,4.651,4.6553,4.6576,4.6624,4.664,4.663,4.6709,4.6733,4.6792,4.6806,4.6823,4.6834,4.682,4.6882,4.6888,4.6894,4.6914,4.6922,4.683,4.683,4.6829,4.6829,0,4.6442,4.6482,4.6511,4.6559,4.6586,4.6627,4.6648,4.6673,4.668,4.6697,4.6748,4.6776,4.6817,4.6832,4.6838,4.6892,4.6886,4.6879,4.6862,4.6902,4.6921,4.6929,4.6831,4.6831,4.6831,4.683,0,0,4.6496,4.6551,4.6562,4.6583,4.6626,4.6657,4.6698,4.6739,4.6761,4.6792,4.6827,4.688,4.6874,4.6897,4.6906,4.6932,4.6976,4.6922,4.6923,4.6932,4.7038,4.7044,4.7053,4.6976,4.6978,4.6979,4.7036,0,4.655,4.6626,4.6641,4.6705,4.6743,4.6747,4.6783,4.6812,4.6828,4.6862,4.6879,4.6917,4.6906,4.692,4.6946,4.6966,4.6998,4.6962,4.7008,4.701,4.7001,4.7063,4.7069,4.7122,4.7043,4.7044,4.7045,0,4.6624,4.666,4.6728,4.6766,4.6782,4.6814,4.6853,4.6885,4.6918,4.6928,4.6954,4.696,4.7001,4.6981,4.7039,4.7014,4.7033,4.7046,4.7048,4.7054,4.7031,4.7071,4.7139,4.7147,4.7057,4.7056,4.7055,0,4.6658,4.6722,4.6772,4.679,4.6835,4.6857,4.6876,4.6908,4.6932,4.6965,4.6981,4.7018,4.7039,4.7067,4.7082,4.7066,4.7139,4.7119,4.7148,4.7148,4.7164,4.7163,4.7237,4.7175,4.7175,4.7175,4.7175,0,4.6718,4.676,4.6788,4.6819,4.6866,4.6882,4.6927,4.6946,4.6974,4.7007,4.7012,4.7043,4.7061,4.7094,4.7106,4.7152,4.7161,4.717,4.7173,4.717,4.7169,4.7184,4.7181,4.7177,4.7176,4.7176,4.7176,0,4.6764,4.6785,4.6839,4.6877,4.6887,4.6921,4.6952,4.6981,4.6998,4.704,4.7051,4.7076,4.7115,4.7133,4.7181,4.7189,4.7242,4.7242,4.7232,4.7233,4.7261,4.7258,4.7347,4.736,4.7289,4.7289,4.729,0,4.6802,4.6835,4.6876,4.6899,4.692,4.6957,4.6982,4.6998,4.7023,4.7063,4.7087,4.7127,4.716,4.7222,4.7244,4.7281,4.7282,4.7311,4.7288,4.7284,4.7283,4.7282,4.7285,4.7315,4.7316,4.7316,4.7317,0,4.6866,4.6875,4.6911,4.695,4.698,4.7011,4.7042,4.7061,4.7082,4.7109,4.7151,4.7176,4.7226,4.7265,4.7303,4.7321,4.7323,4.7324,4.7332,4.7331,4.7324,4.7329,4.7244,4.7322,4.7321,4.7321,4.7321,4.7321,4.691,4.694,4.6973,4.7013,4.7038,4.7067,4.7096,4.7117,4.7151,4.7194,4.7201,4.7245,4.7275,4.7327,4.7347,4.738,4.7373,4.7386,4.7389,4.7392,4.7394,4.7318,4.7387,4.7387,4.7387,4.7387,4.7387,0,4.6976,4.6998,4.7034,4.7078,4.7109,4.7107,4.7141,4.7167,4.7206,4.7235,4.7268,4.7314,4.7352,4.7377,4.7415,4.7437,4.7439,4.7447,4.7446,4.745,4.7398,4.7387,4.7445,4.7445,4.7445,4.7445,4.7445,4.7445,4.7014,4.7063,4.7076,4.7137,4.7159,4.7203,4.7222,4.7248,4.7272,4.7324,4.7356,4.7372,4.7399,4.7439,4.7474,4.748,4.7494,4.7503,4.7508,4.746,4.7454,4.7448,4.7438,4.7505,4.7505,4.7558,4.7558,4.7559]}]]